This is the latest recevied weather packets stored in our database for station/object HS5BOG-13. If no packets are shown the sender has not sent any weather packets the latest 10 day(s).
| Time | Temp. | Humidity | Pressure | Rain* | Wind** | Luminosity | Snow |
|---|---|---|---|---|---|---|---|
| 1777866807 | 31.11° C | 52% | 993.3 hPa | - | - | - | - |
| 1777866201 | 31.11° C | 53% | 993.5 hPa | - | - | - | - |
| 1777865596 | 31.11° C | 53% | 993.6 hPa | - | - | - | - |
| 1777864990 | 30.56° C | 54% | 993.6 hPa | - | - | - | - |
| 1777864385 | 30.56° C | 53% | 993.8 hPa | - | - | - | - |
| 1777863783 | 30.56° C | 53% | 993.8 hPa | - | - | - | - |
| 1777863172 | 30.56° C | 54% | 993.9 hPa | - | - | - | - |
| 1777862566 | 30.56° C | 53% | 994 hPa | - | - | - | - |
| 1777861352 | 30.56° C | 56% | 994.1 hPa | - | - | - | - |
| 1777860746 | 30.56° C | 56% | 994.1 hPa | - | - | - | - |
| 1777860140 | 30° C | 57% | 994.1 hPa | - | - | - | - |
| 1777859535 | 30° C | 59% | 994 hPa | - | - | - | - |
| 1777858929 | 30° C | 58% | 993.9 hPa | - | - | - | - |
| 1777858320 | 30° C | 61% | 993.8 hPa | - | - | - | - |
| 1777857715 | 30° C | 62% | 993.8 hPa | - | - | - | - |
| 1777857109 | 30° C | 63% | 993.7 hPa | - | - | - | - |
| 1777856504 | 29.44° C | 64% | 993.6 hPa | - | - | - | - |
| 1777855898 | 29.44° C | 63% | 993.4 hPa | - | - | - | - |
| 1777855292 | 29.44° C | 63% | 993.3 hPa | - | - | - | - |
| 1777854687 | 29.44° C | 61% | 993.1 hPa | - | - | - | - |
| 1777854081 | 28.89° C | 61% | 993 hPa | - | - | - | - |
| 1777853476 | 28.89° C | 59% | 993.1 hPa | - | - | - | - |
| 1777852870 | 28.89° C | 57% | 992.8 hPa | - | - | - | - |
| 1777852265 | 28.89° C | 60% | 992.8 hPa | - | - | - | - |
| 1777851659 | 28.89° C | 58% | 992.8 hPa | - | - | - | - |
* Rain since midnight (hover to see other rain measurements)
** Current wind speed in m/s (hover to see current wind gust speed)